sat.trackr.live / text

‹ back to catalog

STARLINK-36317

NORAD 67736 · 2026-026R

PAYLOAD ACTIVE UNKNOWN

§ Identity

Operator
Country
US
Launch date
2026-02-11
Launch site
AFWTR
Launch vehicle
Mass (kg)
RCS (m²)

Purposes: comms

External: N2YO · Heavens-Above · Gunter

§ Orbital elements

Epoch: 2026-09-19T22:13:39.148320Z

Period
93.91 min
Inclination
97.2895°
Eccentricity
0.0000179
Mean motion
15.33450546 rev/d
Perigee alt
465.4 km
Apogee alt
465.6 km
Semi-major
6,843.7 km
B*
3.5367e-4
RAAN
314.7835°
Arg perigee
128.4349°
Mean anomaly
231.6910°
Rev number
3,389

§ Raw data

STARLINK-363171 67736U 26026R   26262.92614755  .00011362  00000+0  35367-3 0  99912 67736  97.2895 314.7835 0000179 128.4349 231.6910 15.33450546 33891

JSON: /api/v1/satellites/67736 · /tle

For live sub-satellite position, see the globe view (requires WebGL).

§ Visibility from observer

Set your observer location to see the next 7 days of passes ≥ 10°. The values pass through the URL so the page stays shareable.

No JS? Fill the form by hand. The geolocation button needs JavaScript.